Location: ????????
(55.6189°N, 38.3031°E)
Time: 22:32:22
(UTC+00:00)

SL-16 R/B - Pass Details

Date: 27 February 2020
Orbit: 843 x 847 km, 71.0° (Epoch: 05 April)

Event Time Altitude Azimuth Distance (km) Brightness Sun altitude
Exits shadow 02:26:28 22° 295° (WNW) 1,771 3.4 -17.4°
Maximum altitude 02:28:34 28° 329° (NNW) 1,558 3.4 -17.1°
Drops below altitude 10° 02:33:24 10° 27° (NNE) 2,477 5.1 -16.4°
Sets 02:36:14 0° 40° (NE) 3,414 6.1 -16.0°
